ATENÇÃO
Ajude a manter GRÁTIS o conteúdo do Apolo11. Colabore conosco. Clique Aqui
Meteógrafos Informações Meteorológicas em tempo real
Aeroporto de Congonhas
03-12-2021 19:56 BRT (UTC-3)

Temperatura atual: 17 graus 62 F    Umidade relativa: 88 %
Velocidade do vento: 11 nós 19 Km/h    Direção: 150 graus SSE
Ajuste do altímetro ..: 1017 HPA
Visibilidade: Ótima    Tempo presente: Céu Encoberto

Observação
Céu encoberto a700 Pés.
Data Hora BRTTempo°CUmidadePressãoVentoVisib.
03/12 - 18:56   Céu Encoberto 17° 88% 1017 Sul-sudeste/23 km/h OK
03/12 - 17:56   Poucas nuvens esparsas 18° 88% 1016 Sul-sudeste/25 km/h OK
03/12 - 16:56   Parcialmente Nublado 19° 82% 1016 Sul-sudeste/23 km/h OK
03/12 - 15:56   Parcialmente Nublado 19° 82% 1016 Sul-sudeste/23 km/h 6000
03/12 - 14:56   Parcialmente Nublado 21° 73% 1016 Sul/23 km/h OK
03/12 - 13:56   Parcialmente Nublado 21° 73% 1017 Sul-sudeste/19 km/h 9999
03/12 - 12:56   Muitas Nuvens 21° 73% 1017 Sul-sudeste/19 km/h OK
03/12 - 11:56   Muitas Nuvens 21° 73% 1017 Sul-sudeste/18 km/h OK
03/12 - 10:56   Parcialmente Nublado 20° 77% 1018 Sul-sudeste/18 km/h 9999
03/12 - 09:56   Muitas Nuvens 19° 77% 1018 Sul-sudeste/14 km/h 9999
03/12 - 08:56   Muitas Nuvens 18° 82% 1017 Sudeste/14 km/h 9999
03/12 - 07:56   Parcialmente Nublado 17° 88% 1017 Sul-sudeste/14 km/h OK
03/12 - 06:56   Parcialmente Nublado 17° 88% 1016 Sudeste/14 km/h OK
03/12 - 05:56   Parcialmente Nublado 16° 93% 1015 Sul-sudeste/14 km/h OK
03/12 - 04:56   Muitas Nuvens 16° 93% 1014 Sudeste/16 km/h OK
03/12 - 03:56   Parcialmente Nublado 16° 93% 1014 Sul-sudeste/21 km/h OK
03/12 - 02:56   Parcialmente Nublado 16° 93% 1014 Sul-sudeste/18 km/h 9000
03/12 - 01:56   Parcialmente Nublado 17° 88% 1015 Sudeste/14 km/h OK
03/12 - 00:56   Muitas Nuvens 17° 88% 1015 Sudeste/16 km/h OK
02/12 - 23:56   Muitas Nuvens 17° 93% 1016 Sudeste/12 km/h OK
02/12 - 22:56   Poucas nuvens esparsas 17° 93% 1017 Sul-sudeste/18 km/h OK
02/12 - 21:56   Poucas nuvens esparsas 17° 93% 1017 Sul-sudeste/18 km/h OK
02/12 - 20:56   Poucas nuvens esparsas 17° 93% 1016 Este-sudeste/12 km/h OK
02/12 - 19:56   Poucas nuvens esparsas 17° 93% 1015 Sul-sudeste/19 km/h 9000